Terminal Aerodrome Forecast
Issued by NWS Charleston, WV

Current Version | Previous Version | Graphics & Text | Print | Product List | Glossary On
Versions: 1 2 3 4 5 6 7 8 9 10 11 12 13 14 15 16 17 18 19 20 21 22 23 24 25 26 27 28 29 30
321
FTUS41 KRLX 131120
TAFBKW
TAF
KBKW 131120Z 1312/1412 29011KT P6SM FEW035
     FM132000 26009G18KT P6SM BKN050
     FM140800 28012G26KT P6SM BKN030=

USA.gov is the U.S. government's official web portal to all federal, state and local government web resources and services.